User: anonymous   Login
Location: ????
(55.2778°N, 39.2433°E)
Time: 17:05:36
(UTC+00:00)
Language:

Cosmos 1340 - Orbit

View from above orbital plane
View from above orbital plane
View from above satellite
View from above satellite

Ground track
Ground track

The orbit data is extracted from the following two-line orbital elements,

1 13067U 82013A   24170.62809351  .00021329  00000-0  46386-3 0  9996
2 13067  81.1761  11.0463 0002715 153.9175 206.2206 15.44185350317076
Epoch (UTC): 18 June 2024 15:04:27
Eccentricity: 0.0002715
inclination: 81.1761°
perigee height: 432 km
apogee height: 435 km
right ascension of ascending node: 11.0463°
argument of perigee: 153.9175°
revolutions per day: 15.44185350
mean anomaly at epoch: 206.2206°
orbit number at epoch: 31707

The dashed part of the orbit path shows where the satellite is in the earth's shadow,  

DLR